TimeCST,TemperatureF,Dew PointF,Humidity,Sea Level PressureIn,VisibilityMPH,Wind Direction,Wind SpeedMPH,Gust SpeedMPH,PrecipitationIn,Events,Conditions,WindDirDegrees,DateUTC
12:15 AM,23.0,14.0,68,30.25,10.0,WSW,10.4,-,N/A,,Clear,250,2011-11-17 06:15:00
12:35 AM,21.2,14.0,74,30.25,10.0,WSW,9.2,-,N/A,,Clear,250,2011-11-17 06:35:00
12:55 AM,23.0,14.0,68,30.25,10.0,WSW,10.4,-,N/A,,Clear,250,2011-11-17 06:55:00
1:15 AM,23.0,14.0,68,30.24,10.0,WSW,9.2,-,N/A,,Clear,250,2011-11-17 07:15:00
1:35 AM,23.0,14.0,68,30.25,10.0,West,12.7,-,N/A,,Clear,260,2011-11-17 07:35:00
1:55 AM,23.0,14.0,68,30.25,10.0,West,10.4,-,N/A,,Clear,260,2011-11-17 07:55:00
2:15 AM,21.2,14.0,74,30.25,10.0,WSW,9.2,-,N/A,,Clear,250,2011-11-17 08:15:00
2:35 AM,21.2,14.0,74,30.25,10.0,WSW,8.1,-,N/A,,Clear,250,2011-11-17 08:35:00
2:55 AM,19.4,14.0,80,30.25,10.0,WSW,8.1,-,N/A,,Clear,240,2011-11-17 08:55:00
3:15 AM,19.4,12.2,74,30.26,10.0,WSW,9.2,-,N/A,,Clear,250,2011-11-17 09:15:00
3:35 AM,21.2,14.0,74,30.25,10.0,West,9.2,-,N/A,,Clear,260,2011-11-17 09:35:00
4:15 AM,21.2,14.0,74,30.24,10.0,SW,9.2,-,N/A,,Clear,230,2011-11-17 10:15:00
4:35 AM,21.2,14.0,74,30.24,10.0,SW,9.2,-,N/A,,Clear,220,2011-11-17 10:35:00
4:55 AM,19.4,14.0,80,30.24,10.0,SW,8.1,-,N/A,,Clear,230,2011-11-17 10:55:00
5:15 AM,19.4,12.2,74,30.24,10.0,SW,6.9,-,N/A,,Clear,230,2011-11-17 11:15:00
5:35 AM,19.4,12.2,74,30.24,10.0,SW,6.9,-,N/A,,Clear,230,2011-11-17 11:35:00
6:15 AM,19.4,12.2,74,30.25,10.0,SW,9.2,-,N/A,,Clear,230,2011-11-17 12:15:00
6:35 AM,19.4,12.2,74,30.24,10.0,SW,8.1,-,N/A,,Clear,230,2011-11-17 12:35:00
6:55 AM,19.4,12.2,74,30.24,10.0,SSW,10.4,-,N/A,,Clear,210,2011-11-17 12:55:00
7:15 AM,19.4,12.2,74,30.24,10.0,SW,11.5,-,N/A,,Clear,220,2011-11-17 13:15:00
7:35 AM,21.2,14.0,74,30.25,10.0,SW,11.5,-,N/A,,Clear,230,2011-11-17 13:35:00
7:55 AM,24.8,15.8,69,30.25,10.0,WSW,8.1,-,N/A,,Clear,240,2011-11-17 13:55:00
8:15 AM,26.6,17.6,69,30.25,10.0,SW,6.9,-,N/A,,Clear,230,2011-11-17 14:15:00
8:35 AM,28.4,17.6,64,30.25,10.0,SW,6.9,-,N/A,,Clear,220,2011-11-17 14:35:00
8:55 AM,30.2,15.8,55,30.25,10.0,SW,6.9,-,N/A,,Clear,230,2011-11-17 14:55:00
9:15 AM,30.2,17.6,60,30.24,10.0,WSW,6.9,-,N/A,,Clear,240,2011-11-17 15:15:00
9:35 AM,32.0,17.6,55,30.24,10.0,SSW,5.8,-,N/A,,Clear,210,2011-11-17 15:35:00
9:55 AM,32.0,19.4,60,30.24,10.0,SSW,4.6,-,N/A,,Clear,200,2011-11-17 15:55:00
10:15 AM,35.6,19.4,52,30.23,10.0,Calm,Calm,-,N/A,,Clear,0,2011-11-17 16:15:00
10:35 AM,37.4,19.4,48,30.22,10.0,WSW,6.9,-,N/A,,Clear,250,2011-11-17 16:35:00
10:55 AM,41.0,19.4,42,30.21,10.0,WSW,6.9,-,N/A,,Clear,250,2011-11-17 16:55:00
11:15 AM,41.0,17.6,39,30.21,10.0,West,10.4,-,N/A,,Clear,270,2011-11-17 17:15:00
11:35 AM,42.8,15.8,34,30.20,10.0,WSW,9.2,-,N/A,,Clear,250,2011-11-17 17:35:00
11:55 AM,42.8,14.0,31,30.18,10.0,WSW,10.4,-,N/A,,Clear,250,2011-11-17 17:55:00
12:15 PM,44.6,14.0,29,30.17,10.0,WSW,13.8,17.3,N/A,,Clear,240,2011-11-17 18:15:00
12:35 PM,44.6,14.0,29,30.16,10.0,WSW,13.8,21.9,N/A,,Clear,240,2011-11-17 18:35:00
12:55 PM,44.6,14.0,29,30.15,10.0,SW,18.4,21.9,N/A,,Clear,230,2011-11-17 18:55:00
1:15 PM,46.4,14.0,27,30.14,10.0,WSW,15.0,19.6,N/A,,Clear,240,2011-11-17 19:15:00
1:35 PM,46.4,12.2,25,30.13,10.0,WSW,15.0,20.7,N/A,,Clear,240,2011-11-17 19:35:00
2:15 PM,46.4,12.2,25,30.12,10.0,SSW,15.0,-,N/A,,Clear,210,2011-11-17 20:15:00
2:35 PM,46.4,12.2,25,30.11,10.0,SW,16.1,19.6,N/A,,Clear,220,2011-11-17 20:35:00
2:55 PM,46.4,12.2,25,30.10,10.0,SSW,13.8,18.4,N/A,,Clear,200,2011-11-17 20:55:00
3:15 PM,46.4,12.2,25,30.09,10.0,SSW,13.8,-,N/A,,Clear,200,2011-11-17 21:15:00
3:35 PM,46.4,12.2,25,30.09,10.0,SSW,16.1,20.7,N/A,,Clear,200,2011-11-17 21:35:00
3:55 PM,44.6,12.2,27,30.08,10.0,SSW,12.7,-,N/A,,Clear,200,2011-11-17 21:55:00
4:15 PM,42.8,14.0,31,30.07,10.0,South,10.4,-,N/A,,Clear,180,2011-11-17 22:15:00
4:35 PM,42.8,15.8,34,30.06,10.0,South,10.4,-,N/A,,Clear,180,2011-11-17 22:35:00
4:55 PM,39.2,17.6,42,30.05,10.0,SSE,8.1,-,N/A,,Clear,160,2011-11-17 22:55:00
5:15 PM,37.4,19.4,48,30.05,10.0,SSE,8.1,-,N/A,,Clear,150,2011-11-17 23:15:00
5:35 PM,37.4,21.2,52,30.05,10.0,SSE,8.1,-,N/A,,Clear,160,2011-11-17 23:35:00
5:55 PM,37.4,21.2,52,30.04,10.0,SSE,10.4,-,N/A,,Clear,160,2011-11-17 23:55:00
6:15 PM,35.6,21.2,56,30.04,10.0,SSE,10.4,-,N/A,,Clear,150,2011-11-18 00:15:00
6:35 PM,35.6,21.2,56,30.04,10.0,SSE,10.4,-,N/A,,Clear,150,2011-11-18 00:35:00
6:55 PM,35.6,21.2,56,30.03,10.0,SE,10.4,-,N/A,,Clear,140,2011-11-18 00:55:00
7:35 PM,33.8,23.0,65,30.00,10.0,SSE,11.5,-,N/A,,Clear,150,2011-11-18 01:35:00
7:55 PM,35.6,23.0,60,30.00,10.0,SSE,10.4,-,N/A,,Clear,150,2011-11-18 01:55:00
8:15 PM,33.8,23.0,65,29.99,10.0,SSE,10.4,-,N/A,,Clear,150,2011-11-18 02:15:00
8:35 PM,33.8,23.0,65,29.99,10.0,SSE,9.2,-,N/A,,Clear,150,2011-11-18 02:35:00
8:55 PM,33.8,23.0,65,29.98,10.0,SSE,11.5,-,N/A,,Clear,160,2011-11-18 02:55:00
9:35 PM,35.6,23.0,60,29.97,10.0,SSE,12.7,-,N/A,,Clear,160,2011-11-18 03:35:00
9:55 PM,35.6,23.0,60,29.97,10.0,SSE,12.7,-,N/A,,Clear,160,2011-11-18 03:55:00
10:35 PM,35.6,24.8,65,29.95,10.0,South,13.8,-,N/A,,Clear,170,2011-11-18 04:35:00
10:55 PM,35.6,26.6,70,29.94,10.0,South,16.1,-,N/A,,Clear,170,2011-11-18 04:55:00
11:15 PM,35.6,26.6,70,29.93,10.0,South,17.3,24.2,N/A,,Clear,180,2011-11-18 05:15:00
11:35 PM,35.6,26.6,70,29.92,10.0,South,16.1,-,N/A,,Clear,170,2011-11-18 05:35:00
11:55 PM,35.6,26.6,70,29.91,10.0,South,18.4,21.9,N/A,,Clear,170,2011-11-18 05:55:00